EW4983 Weather Reports


time (UTC)temp
C
wind
direction
speed
KPH
gust
KPH
rain 1hr
cm
rain 24hr
cm
rain mn
cm
humidity
%
barometer
mb
20260906174505 37 68 1.6 11.3 0.00 0.00 0.00 37 1011.9
20260906173009 35 10 4.8 14.5 0.00 0.00 0.00 42 1012.2
20260906171512 37 40 4.8 11.3 0.00 0.00 0.00 39 1012.5
20260906170004 37 132 3.2 12.9 0.00 0.00 0.00 41 1012.7
20260906164603 36 105 1.6 6.4 0.00 0.00 0.00 42 1012.8
20260906163106 36 136 1.6 11.3 0.00 0.00 0.00 45 1012.8
20260906161600 34 136 3.2 8.0 0.00 0.00 0.00 47 1012.9
20260906160053 34 134 4.8 11.3 0.00 0.00 0.00 50 1012.9
20260906154549 33 136 0.0 8.0 0.00 0.00 0.00 50 1012.9
20260906153046 32 133 3.2 8.0 0.00 0.00 0.00 53 1012.8
20260906151543 32 132 1.6 6.4 0.00 0.00 0.00 54 1012.9
20260906150049 32 132 1.6 4.8 0.00 0.00 0.00 54 1012.9
20260906144540 31 132 1.6 4.8 0.00 0.00 0.00 56 1012.8
20260906143036 30 132 3.2 6.4 0.00 0.00 0.00 57 1012.7
20260906141529 28 133 1.6 6.4 0.00 0.00 0.00 63 1012.7
20260906140035 27 132 1.6 8.0 0.00 0.00 0.00 69 1012.8
20260906134522 26 132 3.2 6.4 0.00 0.00 0.00 71 1012.6
20260906133020 25 132 1.6 4.8 0.00 0.00 0.00 75 1012.6
20260906131520 24 132 0.0 4.8 0.00 0.00 0.00 78 1012.6
20260906130020 23 132 1.6 8.0 0.00 0.00 0.00 80 1012.3
20260906124515 22 133 1.6 3.2 0.00 0.00 0.00 82 1012.1
20260906123018 22 133 1.6 4.8 0.00 0.00 0.00 84 1011.9
20260906121524 21 133 0.0 1.6 0.00 0.00 0.00 84 1011.7
20260906120010 21 133 0.0 1.6 0.00 0.00 0.00 84 1011.5
20260906114508 21 133 0.0 0.0 0.00 0.00 0.00 83 1011.6
20260906113021 22 133 0.0 0.0 0.00 0.00 0.00 82 1011.5
20260906111503 22 133 0.0 1.6 0.00 0.00 0.00 80 1011.3
20260906110002 22 133 0.0 1.6 0.00 0.00 0.00 79 1011.3
20260906104504 22 133 0.0 1.6 0.00 0.00 0.00 79 1011.2
20260906103100 22 133 0.0 1.6 0.00 0.00 0.00 81 1011.2
20260906101600 22 133 0.0 0.0 0.00 0.00 0.00 83 1011.1
20260906100058 22 133 0.0 1.6 0.00 0.00 0.00 81 1011.0
20260906094559 22 133 0.0 3.2 0.00 0.00 0.00 81 1011.0
20260906093058 22 133 1.6 3.2 0.00 0.00 0.00 81 1010.9
20260906091555 22 133 0.0 3.2 0.00 0.00 0.00 80 1011.0
20260906090105 22 133 0.0 1.6 0.00 0.00 0.00 79 1011.0
20260906084552 22 133 0.0 1.6 0.00 0.00 0.00 78 1010.9
20260906083051 23 133 0.0 1.6 0.00 0.00 0.00 78 1010.9
20260906081556 23 133 0.0 1.6 0.00 0.00 0.00 78 1010.8
20260906080047 23 133 0.0 4.8 0.00 0.00 0.00 77 1010.8
20260906074604 23 133 1.6 3.2 0.00 0.00 0.00 77 1010.7
20260906073043 24 133 0.0 1.6 0.00 0.00 0.00 75 1010.7
20260906071542 24 133 0.0 3.2 0.00 0.00 0.00 73 1010.8
20260906070041 24 133 0.0 3.2 0.00 0.00 0.00 73 1010.8
20260906064540 24 133 1.6 4.8 0.00 0.00 0.00 75 1011.0
20260906063038 24 133 0.0 3.2 0.00 0.00 0.00 75 1011.1
20260906061536 24 133 0.0 4.8 0.00 0.00 0.00 75 1011.2
20260906060035 24 133 1.6 11.3 0.00 0.00 0.00 74 1011.2
20260906054536 25 127 0.0 1.6 0.00 0.00 0.00 73 1011.1
20260906053034 25 127 0.0 1.6 0.00 0.00 0.00 71 1011.2
20260906051530 25 127 0.0 1.6 0.00 0.00 0.00 71 1011.2
20260906050033 25 127 0.0 1.6 0.00 0.00 0.00 69 1011.1
20260906044534 25 127 0.0 0.0 0.00 0.00 0.00 69 1011.1
20260906043026 26 127 0.0 1.6 0.00 0.00 0.00 69 1011.2
20260906041528 26 127 0.0 3.2 0.00 0.00 0.00 70 1011.3
20260906040028 26 127 1.6 3.2 0.00 0.00 0.00 70 1011.1
20260906034528 26 127 1.6 4.8 0.00 0.00 0.00 70 1011.0
20260906033037 26 127 0.0 3.2 0.00 0.00 0.00 69 1010.7
20260906031527 26 127 0.0 1.6 0.00 0.00 0.00 70 1010.5
20260906030022 26 127 0.0 4.8 0.00 0.00 0.00 68 1010.6
20260906024521 26 127 3.2 4.8 0.00 0.00 0.00 66 1010.3
20260906023024 26 127 1.6 3.2 0.00 0.00 0.00 71 1010.1
20260906021521 27 127 0.0 1.6 0.00 0.00 0.00 71 1010.0
20260906020020 27 127 0.0 1.6 0.00 0.00 0.00 68 1009.8
20260906014520 28 127 0.0 0.0 0.00 0.00 0.00 65 1009.5
20260906013021 28 127 0.0 1.6 0.00 0.00 0.00 64 1009.3
20260906011525 30 127 0.0 1.6 0.00 0.00 0.00 61 1009.3
20260906010019 30 127 0.0 0.0 0.00 0.00 0.00 55 1009.1
20260906004518 31 127 0.0 0.0 0.00 0.00 0.00 51 1009.1
20260906003018 33 127 0.0 0.0 0.00 0.00 0.00 49 1009.3
20260906001517 34 127 0.0 0.0 0.00 0.00 0.00 45 1009.3
20260906000017 35 127 0.0 1.6 0.00 0.00 0.00 43 1009.4
20260905234516 35 127 0.0 4.8 0.00 0.00 0.00 41 1009.4
20260905233015 36 128 0.0 6.4 0.00 0.00 0.00 41 1009.2
20260905231515 36 134 1.6 6.4 0.00 0.00 0.00 39 1009.1
20260905230014 37 39 3.2 6.4 0.00 0.00 0.00 35 1008.9
20260905224515 37 39 0.0 6.4 0.00 0.00 0.00 35 1009.1
20260905223012 37 43 1.6 9.7 0.00 0.00 0.00 35 1009.1
20260905221513 37 48 3.2 8.0 0.00 0.00 0.00 36 1009.3
20260905220009 38 88 3.2 9.7 0.00 0.00 0.00 36 1009.4
20260905214507 38 125 3.2 6.4 0.00 0.00 0.00 35 1009.5
20260905213007 37 130 1.6 6.4 0.00 0.00 0.00 34 1009.6
20260905211504 37 128 3.2 11.3 0.00 0.00 0.00 35 1009.9
20260905210002 37 134 3.2 12.9 0.00 0.00 0.00 32 1010.0
20260905204607 37 132 1.6 6.4 0.00 0.00 0.00 35 1010.3
20260905203116 37 115 3.2 6.4 0.00 0.00 0.00 34 1010.5
20260905201559 37 134 3.2 11.3 0.00 0.00 0.00 37 1010.7
20260905200059 36 182 3.2 9.7 0.00 0.00 0.00 38 1010.8
20260905194551 36 272 3.2 9.7 0.00 0.00 0.00 38 1010.9
20260905193049 36 118 1.6 11.3 0.00 0.00 0.00 38 1011.2
20260905191548 36 54 3.2 14.5 0.00 0.00 0.00 41 1011.5
20260905190047 36 34 1.6 9.7 0.00 0.00 0.00 42 1011.7
20260905184547 36 22 3.2 12.9 0.00 0.00 0.00 41 1011.9
20260905183045 35 59 1.6 9.7 0.00 0.00 0.00 42 1012.2
20260905181601 35 34 1.6 9.7 0.00 0.00 0.00 44 1012.3
20260905180043 36 107 3.2 9.7 0.00 0.00 0.00 40 1012.5